ACA882 KBOS-CYUL

Flight info

Callsign ACA882
Flight time N/A
Altitude 30000
Route HYLND7 HYLND DCT PBERG CARTR5
Aircraft B77W/H-SDE1E2E3FGHIJ2J3J4J5M1RWXY/LB1D1

Departure

Time N/A
Airport Boston Logan International Airport (KBOS)

Arrival

Time 2026-05-07 01:13
Airport Montreal / Pierre Elliott Trudeau International Airport (CYUL)
Time Latitude Longitude Altitude Speed Heading
2026-05-07 00:51 45.57256 -73.42641 9891 ft 298 kts 37°
2026-05-07 00:51 45.58806 -73.40666 9895 ft 300 kts 41°
2026-05-07 00:52 45.60345 -73.38658 9890 ft 300 kts 39°
2026-05-07 00:52 45.61920 -73.36677 9877 ft 305 kts 38°
2026-05-07 00:52 45.63531 -73.34664 9891 ft 309 kts 38°
2026-05-07 00:52 45.65145 -73.32640 9887 ft 308 kts 38°
2026-05-07 00:53 45.66734 -73.30648 9879 ft 307 kts 38°
2026-05-07 00:53 45.68339 -73.28643 9886 ft 306 kts 38°
2026-05-07 00:53 45.69945 -73.26649 9888 ft 306 kts 38°
2026-05-07 00:53 45.71548 -73.24656 9890 ft 305 kts 38°
2026-05-07 00:54 45.73146 -73.22659 9909 ft 305 kts 38°
2026-05-07 00:54 45.74770 -73.20713 9895 ft 303 kts 29°
2026-05-07 00:54 45.76686 -73.19597 9695 ft 296 kts
2026-05-07 00:54 45.78672 -73.19754 9374 ft 280 kts 336°
2026-05-07 00:55 45.80290 -73.21083 9030 ft 262 kts 309°
2026-05-07 00:55 45.81279 -73.23181 8722 ft 252 kts 291°
2026-05-07 00:55 45.81933 -73.25471 8430 ft 252 kts 287°
2026-05-07 00:55 45.82507 -73.27849 8124 ft 253 kts 287°
2026-05-07 00:56 45.83055 -73.30247 7893 ft 251 kts 286°
2026-05-07 00:56 45.83590 -73.32626 7608 ft 252 kts 286°
2026-05-07 00:56 45.84118 -73.35029 7287 ft 253 kts 286°
2026-05-07 00:56 45.84637 -73.37447 6986 ft 254 kts 286°
2026-05-07 00:57 45.85146 -73.39870 6671 ft 254 kts 286°
2026-05-07 00:57 45.85645 -73.42294 6394 ft 254 kts 286°
2026-05-07 00:57 45.86136 -73.44721 6104 ft 252 kts 286°
2026-05-07 00:57 45.86604 -73.47072 6035 ft 246 kts 286°
2026-05-07 00:58 45.87070 -73.49434 5991 ft 246 kts 286°
2026-05-07 00:58 45.87537 -73.51803 6000 ft 249 kts 286°
2026-05-07 00:58 45.88009 -73.54202 5995 ft 250 kts 286°
2026-05-07 00:58 45.88407 -73.56623 5977 ft 250 kts 275°
2026-05-07 00:59 45.87044 -73.61055 5996 ft 253 kts 229°
2026-05-07 00:59 45.85803 -73.62857 5993 ft 255 kts 226°
2026-05-07 00:59 45.84534 -73.64634 5991 ft 256 kts 226°
2026-05-07 01:00 45.83257 -73.66416 5991 ft 256 kts 226°
2026-05-07 01:00 45.81975 -73.68198 5992 ft 257 kts 226°
2026-05-07 01:00 45.80704 -73.69962 5814 ft 260 kts 226°
2026-05-07 01:00 45.79405 -73.71758 5410 ft 258 kts 226°
2026-05-07 01:01 45.78123 -73.73517 5018 ft 252 kts 226°
2026-05-07 01:01 45.76875 -73.75215 4612 ft 243 kts 226°
2026-05-07 01:01 45.75664 -73.76850 4214 ft 235 kts 226°
2026-05-07 01:01 45.74499 -73.78346 4024 ft 217 kts 219°
2026-05-07 01:02 45.73059 -73.79046 4002 ft 226 kts 184°
2026-05-07 01:02 45.71535 -73.78475 3984 ft 233 kts 150°
2026-05-07 01:02 45.70284 -73.76994 3997 ft 235 kts 137°
2026-05-07 01:02 45.69129 -73.75380 3978 ft 235 kts 137°
2026-05-07 01:03 45.67969 -73.73732 3999 ft 235 kts 136°
2026-05-07 01:03 45.66831 -73.72050 3977 ft 236 kts 129°
2026-05-07 01:03 45.66198 -73.69929 3991 ft 233 kts 95°
2026-05-07 01:03 45.66456 -73.67701 3997 ft 227 kts 60°
2026-05-07 01:04 45.67345 -73.65866 4005 ft 225 kts 48°
2026-05-07 01:04 45.68351 -73.64130 3999 ft 227 kts 46°
2026-05-07 01:04 45.69371 -73.62394 3998 ft 229 kts 46°
2026-05-07 01:04 45.70401 -73.60649 3993 ft 230 kts 46°
2026-05-07 01:05 45.71401 -73.58904 3978 ft 231 kts 52°
2026-05-07 01:05 45.71931 -73.56748 3990 ft 234 kts 86°
2026-05-07 01:05 45.71659 -73.54476 3843 ft 233 kts 112°
2026-05-07 01:05 45.70783 -73.52700 3835 ft 202 kts 137°
2026-05-07 01:06 45.69720 -73.51728 3733 ft 163 kts 175°
2026-05-07 01:06 45.68646 -73.52002 3371 ft 174 kts 220°
2026-05-07 01:06 45.67778 -73.52994 3377 ft 155 kts 216°
2026-05-07 01:06 45.66534 -73.53385 3544 ft 204 kts 196°
2026-05-07 01:07 45.65279 -73.54019 3756 ft 183 kts 206°
2026-05-07 01:07 45.64039 -73.54413 3275 ft 186 kts 189°
2026-05-07 01:07 45.62764 -73.54438 2983 ft 166 kts 191°
2026-05-07 01:07 45.61745 -73.54762 2774 ft 152 kts 206°
2026-05-07 01:08 45.60814 -73.55544 2655 ft 150 kts 229°
2026-05-07 01:08 45.60171 -73.56679 2663 ft 144 kts 244°
2026-05-07 01:08 45.59602 -73.57906 2708 ft 150 kts 242°
2026-05-07 01:08 45.58948 -73.59083 2494 ft 154 kts 235°
2026-05-07 01:09 45.58215 -73.60211 2246 ft 157 kts 234°
2026-05-07 01:09 45.57449 -73.61332 1964 ft 159 kts 231°
2026-05-07 01:09 45.56705 -73.62411 1857 ft 146 kts 231°
2026-05-07 01:09 45.56004 -73.63378 1709 ft 138 kts 230°
2026-05-07 01:10 45.55323 -73.64346 1516 ft 145 kts 228°
2026-05-07 01:10 45.54589 -73.65315 1561 ft 141 kts 228°
2026-05-07 01:10 45.53888 -73.66228 1504 ft 136 kts 229°
2026-05-07 01:10 45.53197 -73.67164 1379 ft 144 kts 229°
2026-05-07 01:11 45.52437 -73.68168 1338 ft 151 kts 227°
2026-05-07 01:11 45.51650 -73.69195 1193 ft 156 kts 227°
2026-05-07 01:11 45.50847 -73.70261 923 ft 157 kts 227°
2026-05-07 01:11 45.50064 -73.71298 648 ft 151 kts 224°
2026-05-07 01:12 45.49287 -73.72317 465 ft 152 kts 226°
2026-05-07 01:12 45.48541 -73.73307 250 ft 141 kts 226°
2026-05-07 01:12 45.47856 -73.74215 126 ft 125 kts 224°
2026-05-07 01:12 45.47277 -73.74975 120 ft 93 kts 222°
2026-05-07 01:13 45.46924 -73.75437 115 ft 41 kts 223°
2026-05-07 01:13 45.46758 -73.75582 120 ft 26 kts 193°
2026-05-07 01:13 45.46598 -73.75634 121 ft 20 kts 193°
2026-05-07 01:13 45.46544 -73.75652 120 ft 0 kts 193°
2026-05-07 01:14 45.46534 -73.75656 121 ft 5 kts 194°
2026-05-07 01:14 45.46494 -73.75669 121 ft 6 kts 192°
2026-05-07 01:14 45.46436 -73.75687 119 ft 11 kts 192°
2026-05-07 01:14 45.46355 -73.75712 115 ft 13 kts 192°
2026-05-07 01:15 45.46343 -73.75716 117 ft 0 kts 192°
2026-05-07 01:15 45.46338 -73.75717 117 ft 0 kts 191°
2026-05-07 01:15 45.46294 -73.75678 116 ft 10 kts 109°
2026-05-07 01:15 45.46293 -73.75592 120 ft 9 kts 90°
2026-05-07 01:16 45.46280 -73.75507 117 ft 9 kts 104°
2026-05-07 01:16 45.46272 -73.75421 117 ft 9 kts 88°
2026-05-07 01:16 45.46294 -73.75340 117 ft 9 kts 60°
2026-05-07 01:16 45.46317 -73.75190 116 ft 18 kts 90°
2026-05-07 01:17 45.46354 -73.75031 117 ft 18 kts 32°
2026-05-07 01:17 45.46479 -73.75013 114 ft 19 kts 359°
2026-05-07 01:17 45.46568 -73.75069 113 ft 11 kts 285°
2026-05-07 01:17 45.46565 -73.75132 116 ft 0 kts 266°